Flag for Brazil Weather past 2 weeks in Curitiba, Paraná, Brazil

Now
64 °F

Low clouds.


Feels Like: 64 °F
Forecast: 62 / 77 °F
Wind: 3 mph from North

Location: Curitiba Aeroporto

Current Time: Apr 18, 2015 at 6:29:15 AM

Latest Report: Apr 18, 2015 at 5:00 AM


Visibility: N/A

Pressure: 30.07 "Hg

Humidity: 94%

Dew point: 63 °F

Location of CuritibaLocation

Historic Weather in Curitiba — Graph

°F

Curitiba temperature yesterday

Maximum temperature yesterday: 73 °F (at 2:00 PM)
Minimum temperature yesterday: 63 °F (at 1:00 AM)
Average temperature yesterday: 66 °F

Past Weeks' High & Low Weather Summary

 TemperatureHumidityPressure
High79 °F (Apr 5, 2:00 PM)100% (Apr 3, 5:00 AM)30.27 "Hg (Apr 3, 5:00 AM)
Low50 °F (Apr 7, 5:00 AM)34% (Apr 4, 3:00 PM)27.05 "Hg (Apr 5, 1:00 PM)
Average64 °F81%30.09 "Hg
* Reported Apr 3 5:00 AM — Apr 18 5:00 AM, Curitiba, Weather by CustomWeather, © 2015

Note: Actual official high and low records may vary slightly from our data, if they occured in-between our weather recording intervals... More about our weather records

Advertising

Curitiba weather history for previous 24 hours

 ConditionsComfort  
Time TempWeatherWind HumidityBarometerVisibility
5:00 AM
Sat, Apr 18
64 °FLow clouds.3 mph94%30.07 "HgN/A
4:00 AM64 °FLow clouds.3 mph94%30.07 "HgN/A
3:00 AM64 °FPassing clouds.2 mph94%30.07 "HgN/A
2:00 AM63 °FPassing clouds.5 mph94%30.07 "HgN/A
1:00 AM64 °FPassing clouds.3 mph94%30.09 "HgN/A
12:00 AM64 °FPassing clouds.6 mph94%30.12 "HgN/A
11:00 PM
Fri, Apr 17
64 °FPassing clouds.7 mph94%30.12 "HgN/A
10:00 PM64 °FPassing clouds.3 mph94%30.12 "HgN/A
9:00 PM64 °FPassing clouds.2 mph94%30.12 "HgN/A
8:00 PM64 °FPartly cloudy.5 mph94%30.09 "HgN/A
7:00 PM64 °FPartly cloudy.5 mph94%30.09 "HgN/A
6:00 PM66 °FPassing clouds.8 mph88%30.09 "HgN/A
5:00 PM68 °FPassing clouds.8 mph83%30.09 "HgN/A
4:00 PM72 °FBroken clouds.7 mph73%30.09 "HgN/A
3:00 PM73 °FBroken clouds.6 mph69%30.12 "HgN/A
2:00 PM73 °FBroken clouds.8 mph65%30.12 "HgN/A
1:00 PM70 °FPartly sunny.10 mph78%30.15 "HgN/A
12:00 PM70 °FPartly sunny.9 mph78%30.15 "HgN/A
11:00 AM68 °FMore clouds than sun.9 mph83%30.18 "HgN/A
10:00 AM66 °FMostly cloudy.6 mph94%30.21 "Hg4 mi
9:00 AM64 °FMore clouds than sun.3 mph94%30.18 "Hg4 mi
8:00 AM64 °FBroken clouds.5 mph94%30.18 "HgN/A
7:04 AM63 °FPartly sunny.2 mph94%30.15 "HgN/A
6:00 AM63 °FLight rain. Partly sunny.5 mph94%30.15 "Hg1 mi
Weather by CustomWeather, © 2015

See weather overviewHow to use our weather pages